When you browse on this site, cookies collect data to enhance your experience and personalize the content and advertising you see.
Visit our Privacy Policy to learn more. By continuing to use the site, you agree to this use of cookies and data.
  • In Austria
  • List of Countries
  • For 7 days
  • Water Temperature
  • Satellite Maps
  • Weather Map
  • News
  • Weather Widgets
  • user-avatar
    Login

    Hourly Weather Antonin

    Today, 17 December, Monday

    Time Temperature Precipitation Wind Pressure Humidity
    00:00 -5°C° 0 mm 3 mps 751 mmHg 80%
    01:00 -3°C° 0 mm 2 mps 751 mmHg 80%
    02:00 -3°C° 0 mm 2 mps 751 mmHg 80%
    03:00 -3°C° 0 mm 2 mps 751 mmHg 80%
    04:00 -3°C° 0 mm 2 mps 751 mmHg 79%
    05:00 -3°C° 0 mm 2 mps 751 mmHg 81%
    06:00 -4°C° 0 mm 2 mps 751 mmHg 82%
    07:00 -4°C° 0 mm 2 mps 751 mmHg 85%
    08:00 -4°C° 0 mm 2 mps 752 mmHg 83%
    09:00 -1°C° 0 mm 1 mps 752 mmHg 81%
    10:00 -1°C° 0 mm 1 mps 752 mmHg 80%
    11:00 0°C° 0 mm 1 mps 753 mmHg 78%
    12:00 0°C° 0 mm 1 mps 753 mmHg 76%
    13:00 -2°C° 0 mm 2 mps 753 mmHg 76%
    14:00 0°C° 0 mm 1 mps 753 mmHg 79%
    15:00 0°C° 0 mm 1 mps 754 mmHg 82%
    16:00 -1°C° 0 mm 1 mps 754 mmHg 85%
    17:00 -1°C° 0 mm 1 mps 754 mmHg 85%
    18:00 -1°C° 0 mm 1 mps 755 mmHg 86%
    19:00 -1°C° 0 mm 1 mps 755 mmHg 86%
    20:00 0°C° 0 mm 1 mps 756 mmHg 87%
    21:00 0°C° 0 mm 1 mps 756 mmHg 88%
    22:00 -2°C° 0 mm 2 mps 756 mmHg 88%
    23:00 -2°C° 0 mm 2 mps 756 mmHg 89%

    Tomorrow, 18 December, Tuesday

    Time Temperature Precipitation Wind Pressure Humidity
    00:00 0°C° 0 mm 1 mps 757 mmHg 89%
    01:00 0°C° 0 mm 1 mps 757 mmHg 90%
    02:00 0°C° 0 mm 1 mps 757 mmHg 90%
    03:00 +1°C° 0 mm 1 mps 757 mmHg 90%
    04:00 +1°C° 0 mm 1 mps 757 mmHg 91%
    05:00 +1°C° 0 mm 1 mps 757 mmHg 91%
    06:00 +1°C° 0 mm 1 mps 757 mmHg 91%
    07:00 -1°C° 0 mm 2 mps 757 mmHg 92%
    08:00 -1°C° 0 mm 2 mps 757 mmHg 92%
    09:00 +1°C° 0 mm 2 mps 758 mmHg 92%
    10:00 +1°C° 0 mm 2 mps 758 mmHg 92%
    11:00 +1°C° 0 mm 2 mps 758 mmHg 92%
    12:00 +1°C° 0 mm 2 mps 758 mmHg 92%
    13:00 +2°C° 0 mm 2 mps 758 mmHg 92%
    14:00 +2°C° 0 mm 1 mps 758 mmHg 92%
    15:00 +2°C° 0 mm 1 mps 758 mmHg 93%
    16:00 +2°C° 0 mm 1 mps 758 mmHg 93%
    17:00 +2°C° 0 mm 1 mps 758 mmHg 93%
    18:00 +1°C° 0 mm 1 mps 758 mmHg 93%
    19:00 +1°C° 0 mm 1 mps 758 mmHg 93%
    20:00 -1°C° 0 mm 2 mps 758 mmHg 92%
    21:00 -1°C° 0 mm 2 mps 758 mmHg 92%
    22:00 -1°C° 0 mm 2 mps 757 mmHg 92%
    23:00 -1°C° 0 mm 2 mps 757 mmHg 91%

    Day after tomorrow, 19 December, Wednesday

    Time Temperature Precipitation Wind Pressure Humidity
    00:00 -1°C° 0 mm 2 mps 757 mmHg 91%
    01:00 -2°C° 0 mm 2 mps 757 mmHg 91%
    02:00 -2°C° 0 mm 3 mps 757 mmHg 90%
    03:00 -2°C° 0 mm 3 mps 757 mmHg 90%
    04:00 -2°C° 0 mm 3 mps 756 mmHg 89%
    05:00 -3°C° 0 mm 4 mps 756 mmHg 88%
    06:00 -3°C° 0 mm 4 mps 756 mmHg 88%
    07:00 -3°C° 0 mm 4 mps 756 mmHg 87%
    08:00 -3°C° 0 mm 4 mps 756 mmHg 85%
    09:00 -2°C° 0 mm 5 mps 756 mmHg 83%
    10:00 -2°C° 0 mm 5 mps 755 mmHg 81%
    11:00 -2°C° 0 mm 5 mps 755 mmHg 79%
    12:00 -1°C° 0 mm 4 mps 755 mmHg 77%
    13:00 -1°C° 0 mm 4 mps 754 mmHg 75%
    14:00 -1°C° 0 mm 4 mps 754 mmHg 76%
    15:00 -1°C° 0 mm 4 mps 754 mmHg 77%
    16:00 -2°C° 0 mm 4 mps 753 mmHg 78%
    17:00 -2°C° 0 mm 4 mps 753 mmHg 78%
    18:00 -2°C° 0 mm 4 mps 753 mmHg 78%
    19:00 -2°C° 0 mm 4 mps 753 mmHg 78%
    20:00 -2°C° 0 mm 4 mps 753 mmHg 78%
    21:00 -2°C° 0 mm 4 mps 753 mmHg 78%
    22:00 -2°C° 0 mm 4 mps 752 mmHg 78%
    23:00 -2°C° 0 mm 4 mps 752 mmHg 78%

    20 December, Thursday

    Time Temperature Precipitation Wind Pressure Humidity
    00:00 -2°C° 0 mm 4 mps 752 mmHg 77%
    01:00 -2°C° 0 mm 4 mps 752 mmHg 77%
    02:00 -2°C° 0 mm 4 mps 752 mmHg 77%
    03:00 -2°C° 0 mm 4 mps 752 mmHg 76%
    04:00 -1°C° 0 mm 3 mps 752 mmHg 76%
    05:00 -1°C° 0 mm 3 mps 752 mmHg 76%
    06:00 -1°C° 0 mm 3 mps 752 mmHg 76%
    07:00 -1°C° 0 mm 3 mps 752 mmHg 75%
    08:00 -1°C° 0 mm 3 mps 752 mmHg 75%
    09:00 -1°C° 0 mm 3 mps 752 mmHg 74%
    10:00 -1°C° 0 mm 3 mps 752 mmHg 74%
    11:00 -1°C° 0 mm 3 mps 751 mmHg 74%
    12:00 -1°C° 0 mm 3 mps 751 mmHg 75%
    13:00 0°C° 0 mm 3 mps 751 mmHg 75%
    14:00 -1°C° 0 mm 3 mps 751 mmHg 77%
    15:00 -1°C° 0 mm 3 mps 751 mmHg 78%
    16:00 -1°C° 0 mm 3 mps 751 mmHg 80%
    17:00 -1°C° 0.1 mm 3 mps 751 mmHg 82%
    18:00 -1°C° 0.1 mm 3 mps 751 mmHg 84%
    19:00 -1°C° 0.1 mm 3 mps 751 mmHg 87%
    20:00 -1°C° 0.2 mm 3 mps 751 mmHg 88%
    21:00 -1°C° 0.2 mm 3 mps 751 mmHg 90%
    22:00 -1°C° 0.2 mm 3 mps 751 mmHg 92%
    23:00 0°C° 0.1 mm 3 mps 751 mmHg 91%

    21 December, Friday

    Time Temperature Precipitation Wind Pressure Humidity
    00:00 0°C° 0.1 mm 3 mps 751 mmHg 91%
    01:00 0°C° 0.1 mm 3 mps 751 mmHg 91%
    02:00 -1°C° 0 mm 3 mps 751 mmHg 91%
    03:00 -1°C° 0 mm 3 mps 750 mmHg 92%
    04:00 -1°C° 0 mm 3 mps 750 mmHg 92%
    05:00 -1°C° 0 mm 3 mps 750 mmHg 92%
    06:00 -1°C° 0 mm 3 mps 750 mmHg 91%
    07:00 -1°C° 0 mm 3 mps 749 mmHg 91%
    08:00 -1°C° 0 mm 4 mps 749 mmHg 90%
    09:00 -1°C° 0 mm 4 mps 749 mmHg 89%
    10:00 0°C° 0 mm 4 mps 749 mmHg 89%
    11:00 0°C° 0 mm 4 mps 748 mmHg 89%
    12:00 0°C° 0 mm 4 mps 748 mmHg 88%
    13:00 +1°C° 0 mm 4 mps 747 mmHg 88%
    14:00 0°C° 0.1 mm 4 mps 746 mmHg 89%
    15:00 0°C° 0.1 mm 4 mps 746 mmHg 89%
    16:00 0°C° 0.1 mm 4 mps 745 mmHg 90%
    17:00 0°C° 0.1 mm 4 mps 744 mmHg 89%
    18:00 0°C° 0.1 mm 5 mps 744 mmHg 89%
    19:00 0°C° 0.1 mm 5 mps 743 mmHg 88%
    20:00 0°C° 1 mm 5 mps 742 mmHg 89%
    21:00 0°C° 1 mm 5 mps 741 mmHg 90%
    22:00 +1°C° 1 mm 5 mps 741 mmHg 90%
    23:00 +1°C° 0.6 mm 6 mps 741 mmHg 89%

    22 December, Saturday

    Time Temperature Precipitation Wind Pressure Humidity
    00:00 +2°C° 0.6 mm 7 mps 740 mmHg 88%
    01:00 +3°C° 0.6 mm 7 mps 740 mmHg 87%
    02:00 +3°C° 0.2 mm 7 mps 740 mmHg 86%
    03:00 +3°C° 0.2 mm 7 mps 741 mmHg 86%
    04:00 +3°C° 0.2 mm 7 mps 741 mmHg 85%
    05:00 +3°C° 0.1 mm 7 mps 741 mmHg 85%
    06:00 +3°C° 0.1 mm 7 mps 741 mmHg 86%
    07:00 +3°C° 0.1 mm 6 mps 741 mmHg 86%
    08:00 +3°C° 0.3 mm 6 mps 741 mmHg 88%
    09:00 +3°C° 0.3 mm 6 mps 741 mmHg 89%
    10:00 +3°C° 0.3 mm 6 mps 742 mmHg 90%
    11:00 +3°C° 0.8 mm 6 mps 741 mmHg 89%
    12:00 +4°C° 0.8 mm 6 mps 741 mmHg 89%
    13:00 +4°C° 0.8 mm 6 mps 741 mmHg 88%
    14:00 +4°C° 0.5 mm 6 mps 741 mmHg 87%
    15:00 +4°C° 0.5 mm 7 mps 741 mmHg 86%
    16:00 +5°C° 0.5 mm 7 mps 742 mmHg 84%
    17:00 +4°C° 0.1 mm 7 mps 742 mmHg 84%
    18:00 +4°C° 0.1 mm 7 mps 743 mmHg 84%
    19:00 +4°C° 0.1 mm 7 mps 743 mmHg 84%
    20:00 +4°C° 0.1 mm 7 mps 744 mmHg 84%
    21:00 +4°C° 0.1 mm 7 mps 744 mmHg 85%
    22:00 +4°C° 0.1 mm 6 mps 745 mmHg 85%
    23:00 +4°C° 0.3 mm 6 mps 745 mmHg 86%
    Show more